Weather Roundup
Issued by NWS Chicago, IL

Home | Current Version | Previous Version | Text Only | Print | Product List | Glossary On
Versions: 1 2 3 4 5 6 7 8 9 10 11 12 13 14 15 16 17 18 19 20 21 22 23 24 25 26 27 28 29 30 31 32 33 34 35 36 37 38 39 40 41 42 43 44 45 46 47 48 49 50
000
NZUS59 KLOT 041910
HRRLOT

CHICAGO AREA WEATHER ROUNDUP
NATIONAL WEATHER SERVICE CHICAGO/ROMEOVILLE IL
100 PM CST WED MAR 04 2015

NOTE: "FAIR" INDICATES FEW OR NO CLOUDS BELOW 12,000 FEET WITH NO
SIGNIFICANT WEATHER AND/OR OBSTRUCTIONS TO VISIBILITY.

* THESE STATIONS ARE NOT UNDER NWS QUALITY CONTROL. THEY ALSO MAY NOT
  REPORT WEATHER SUCH AS PRECIPITATION OR FOG.

ILZ005-006-012>014-019>023-042000-
NORTHEAST ILLINOIS

CITY           SKY/WX    TMP DP  RH WIND       PRES   REMARKS
OHARE          PTSUNNY   19   6  57 NW13      30.14R WCI   6
MIDWAY         CLOUDY    22   6  50 NW16      30.14S WCI   8
AURORA         MOSUNNY   18   7  62 NW15      30.17R WCI   4
LANSING*       PTSUNNY   23   9  55 NW12G18   30.13S WCI  12
JOLIET*        PTSUNNY   18   6  58 NW12G20   30.16F WCI   5
WAUKEGAN       MOSUNNY   19   0  43 NW13G21   30.12F WCI   6
DUPAGE AIRPORT MOSUNNY   19   4  51 NW12      30.15R WCI   7
WHEELING         N/A     21   3  45 NW16G23   30.16S WCI   7
KANKAKEE*      CLOUDY    20  11  68 NW15      30.17R WCI   7
MORRIS*        PTSUNNY   18  10  71 NW9G20    30.18S WCI   7
LEWIS AIRPORT* PTSUNNY   19   8  60 NW13      30.14F WCI   6
NORTHERLY IS     N/A     22   6  50 W15         N/A  WCI   9
$$

WIZ051-052-058>065-066-070>072-042000-
SOUTHEAST WISCONSIN

CITY           SKY/WX    TMP DP  RH WIND       PRES   REMARKS
MILWAUKEE      PTSUNNY   19  -2  39 NW18G24   30.14R WCI   4
KENOSHA*       SUNNY     18   0  45 NW16      30.13S WCI   3
RACINE*        SUNNY     19  -2  39 NW17G23   30.15R WCI   4
BURLINGTON     SUNNY     16  -2  45 NW14G25   30.14S WCI   1
WAUKESHA       SUNNY     16   0  48 W16G23    30.13S WCI   0
WEST BEND      SUNNY     18   0  45 W20       30.12S WCI   1
$$

INZ001>003-010>013-019-020-042000-
NORTHWEST INDIANA

CITY           SKY/WX    TMP DP  RH WIND       PRES   REMARKS
GARY*          NOT AVBL
MICHIGAN CITY* NOT AVBL
RENSSELAER*    NOT AVBL
VALPARAISO     MIX PCPN  24  11  57 NW10G17   30.10S WCI  14
$$

LMZ740>746-042000-
SOUTHERN LAKE MICHIGAN

STATION/POSITION TIME  SKY/WX   TEMP WIND        PRES    VSBY
                                AIR  DIR/SP/G
                 (UTC)          (F)  (DEG/KT/KT) (MB)    (MI)
HARRISON CRIB    1900            20  290/ 15/ 18   N/A
BURNHAM HARBOR   1900            22  300/ 10/ 15   N/A
CALUMET HARBOR   1900            22  290/  9/ 13 1019.2R
BURNS HARBOR     NOT AVBL
MICHIGAN CITY    1900            22  290/ 16/ 19   N/A
$$

ABBREVIATIONS USED IN REMARKS
   TC - TEMPERATURE IN CELSIUS
  WCI - WIND CHILL INDEX
   HX - HEAT INDEX
  VSB - VISIBILITY
$$


USA.gov is the U.S. government's official web portal to all federal, state and local government web resources and services.